Location: Colorado Springs
(38.8340°N, 104.8210°W)
Time: 00:52:59
(UTC-06:00)

OTV 5 (USA 277) - Pass Details

Date: 11 October 2017
Orbit: 404 x 417 km, 43.0° (Epoch: 07 September)

Event Time Altitude Azimuth Distance (km) Brightness Sun altitude
Rises 20:00:10 0° 259° (WSW) 2,349 ? -19.1°
Reaches altitude 10° 20:02:18 10° 263° (W) 1,488 ? -19.5°
Maximum altitude 20:05:38 60° 344° (NNW) 478 ? -20.2°
Enters shadow 20:05:49 59° 2° (N) 484 ? -20.2°
